Flag for Micronesia Weather past 2 weeks in Weno, Truk, Micronesia

87 °F

Mostly cloudy.

Feels Like: 103 °F
Forecast: 80 / 86 °F
Wind: 9 mph from Southwest

Location: Truk Intl / Moen Island

Current Time: Oct 14, 2015 at 1:13:39 PM

Latest Report: Oct 14, 2015 at 11:50 AM

Visibility: 15 mi

Pressure: 29.80 "Hg

Humidity: 79%

Dew point: 80 °F

Location of WenoLocation

Historic Weather in Weno — Graph


Weno temperature yesterday

Maximum temperature yesterday: 88 °F (at 11:51 AM)
Minimum temperature yesterday: 81 °F (at 12:50 AM)
Average temperature yesterday: 84 °F

Past Weeks' High & Low Weather Summary

High89 °F (Sep 29, 11:50 AM)98% (Sep 30, 5:50 AM)29.94 "Hg (Sep 30, 5:50 AM)
Low76 °F (Oct 9, 5:54 AM)75% (Oct 3, 11:52 AM)29.68 "Hg (Oct 5, 2:53 PM)
Average83 °F85%29.82 "Hg
* Reported Sep 29 11:50 AM — Oct 14 11:50 AM, Weno, Weather by CustomWeather, © 2015

Note: Actual official high and low records may vary slightly from our data, if they occured in-between our weather recording intervals... More about our weather records


Weno weather history for previous 24 hours

Time TempWeatherWind HumidityBarometerVisibility
11:50 AM
Wed, Oct 14
87 °FMostly cloudy.9 mph79%29.80 "Hg15 mi
10:50 AM86 °FMostly cloudy.9 mph81%29.83 "Hg15 mi
9:50 AM85 °FMostly cloudy.10 mph82%29.84 "Hg15 mi
8:50 AM85 °FMostly cloudy.8 mph80%29.84 "Hg15 mi
7:50 AM84 °FMostly cloudy.9 mph85%29.83 "Hg15 mi
6:50 AM82 °FMostly cloudy.8 mph86%29.82 "Hg15 mi
5:50 AM82 °FPartly sunny.8 mph86%29.79 "Hg15 mi
3:54 AM82 °FPassing clouds.9 mph86%29.77 "Hg15 mi
2:55 AM82 °FPassing clouds.9 mph87%29.78 "Hg15 mi
1:55 AM82 °FPassing clouds.9 mph87%29.79 "Hg15 mi
12:55 AM82 °FMostly cloudy.9 mph87%29.81 "Hg15 mi
11:56 PM
Tue, Oct 13
82 °FPartly cloudy.8 mph88%29.83 "Hg15 mi
10:56 PM82 °FPartly cloudy.7 mph85%29.83 "Hg15 mi
9:52 PM82 °FMostly cloudy.12 mph87%29.84 "Hg15 mi
8:55 PM83 °FMostly cloudy.8 mph84%29.84 "Hg15 mi
7:50 PM83 °FMostly cloudy.12 mph84%29.84 "Hg15 mi
6:52 PM83 °FMostly cloudy.12 mph85%29.82 "Hg15 mi
5:52 PM83 °FMostly cloudy.9 mph86%29.79 "Hg15 mi
4:50 PM85 °FMore clouds than sun.12 mph83%29.76 "Hg15 mi
3:50 PM86 °FBroken clouds.12 mph82%29.76 "Hg15 mi
2:50 PM87 °FPartly sunny.10 mph81%29.75 "Hg15 mi
1:55 PM87 °FBroken clouds.12 mph80%29.76 "Hg15 mi
Weather by CustomWeather, © 2015

See weather overviewHow to use our weather pages